owner,sensor,date,latitude,longitude,vertical_datum,sea_water_temperature,qcFlag
W and T,ioos:station:wmo:42901:1,2020-05-01T17:01:00Z,0.0000,0.0000,41.5,23.1,11111222
W and T,ioos:station:wmo:42901:1,2020-05-01T17:20:00Z,28.1670,-88.4809,41.5,23.4,11111222
W and T,ioos:station:wmo:42901:1,2020-05-01T17:40:00Z,28.1670,-88.4809,41.6,23.5,11111222
W and T,ioos:station:wmo:42901:1,2020-05-01T18:00:00Z,28.1670,-88.4809,41.5,23.7,11111222
W and T,ioos:station:wmo:42901:1,2020-05-01T18:20:00Z,28.1670,-88.4809,41.3,23.8,11111222
W and T,ioos:station:wmo:42901:1,2020-05-01T18:40:00Z,28.1670,-88.4809,41.6,23.5,11111222
W and T,ioos:station:wmo:42901:1,2020-05-01T19:00:00Z,28.1670,-88.4809,41.6,23.2,11111222
W and T,ioos:station:wmo:42901:1,2020-05-01T19:20:00Z,28.1670,-88.4809,41.7,23.2,11111222
W and T,ioos:station:wmo:42901:1,2020-05-01T19:40:00Z,28.1670,-88.4809,41.8,23.6,11111222
W and T,ioos:station:wmo:42901:1,2020-05-01T20:00:00Z,28.1670,-88.4809,41.8,23.7,11111222
W and T,ioos:station:wmo:42901:1,2020-05-01T20:20:00Z,28.1670,-88.4809,41.8,23.2,11111222
W and T,ioos:station:wmo:42901:1,2020-05-01T20:40:00Z,28.1670,-88.4809,41.6,23.1,11111222
W and T,ioos:station:wmo:42901:1,2020-05-01T21:00:00Z,28.1670,-88.4809,41.6,23.1,11111222
W and T,ioos:station:wmo:42901:1,2020-05-01T21:20:00Z,28.1670,-88.4809,41.5,23.1,11111222
W and T,ioos:station:wmo:42901:1,2020-05-01T21:40:00Z,28.1670,-88.4809,41.4,23.1,11111222
W and T,ioos:station:wmo:42901:1,2020-05-01T22:00:00Z,28.1670,-88.4809,41.3,23.2,11111222
W and T,ioos:station:wmo:42901:1,2020-05-01T22:20:00Z,28.1670,-88.4809,41.3,23.3,11111222
W and T,ioos:station:wmo:42901:1,2020-05-01T22:40:00Z,28.1670,-88.4809,41.3,23.2,11111222
W and T,ioos:station:wmo:42901:1,2020-05-01T23:00:00Z,28.1670,-88.4809,41.4,23.3,11111222
W and T,ioos:station:wmo:42901:1,2020-05-01T23:20:00Z,28.1670,-88.4809,41.4,23.2,11111222
W and T,ioos:station:wmo:42901:1,2020-05-01T23:40:00Z,28.1670,-88.4809,41.4,23.2,11111222
W and T,ioos:station:wmo:42901:1,2020-05-02T00:00:00Z,28.1670,-88.4809,41.5,23.2,11111222
W and T,ioos:station:wmo:42901:1,2020-05-02T00:20:00Z,28.1670,-88.4809,41.4,23.3,11111222
W and T,ioos:station:wmo:42901:1,2020-05-02T00:40:00Z,28.1670,-88.4809,41.5,23.5,11111222
W and T,ioos:station:wmo:42901:1,2020-05-02T01:00:00Z,28.1670,-88.4809,41.5,23.6,11111222
W and T,ioos:station:wmo:42901:1,2020-05-02T01:20:00Z,28.1670,-88.4809,41.5,23.7,11111222
W and T,ioos:station:wmo:42901:1,2020-05-02T01:40:00Z,28.1670,-88.4809,41.5,23.6,11111222
W and T,ioos:station:wmo:42901:1,2020-05-02T02:00:00Z,28.1670,-88.4809,41.3,23.2,11111222
W and T,ioos:station:wmo:42901:1,2020-05-02T02:20:00Z,28.1670,-88.4809,41.3,23.2,11111222
W and T,ioos:station:wmo:42901:1,2020-05-02T02:40:00Z,28.1670,-88.4809,41.4,23.1,11111222
W and T,ioos:station:wmo:42901:1,2020-05-02T03:00:00Z,28.1670,-88.4809,41.4,23.1,11111222
W and T,ioos:station:wmo:42901:1,2020-05-02T03:20:00Z,28.1670,-88.4809,41.4,23.1,11111222
W and T,ioos:station:wmo:42901:1,2020-05-02T03:40:00Z,28.1670,-88.4809,41.4,23.1,11111222
W and T,ioos:station:wmo:42901:1,2020-05-02T04:00:00Z,28.1670,-88.4809,41.4,23.2,11111222
W and T,ioos:station:wmo:42901:1,2020-05-02T04:20:00Z,28.1670,-88.4809,41.4,23.3,11111222
W and T,ioos:station:wmo:42901:1,2020-05-02T04:40:00Z,28.1670,-88.4809,41.4,23.2,11111222
W and T,ioos:station:wmo:42901:1,2020-05-02T05:00:00Z,28.1670,-88.4809,41.4,23.2,11111222
W and T,ioos:station:wmo:42901:1,2020-05-02T05:20:00Z,28.1670,-88.4809,41.4,23.2,11111222
W and T,ioos:station:wmo:42901:1,2020-05-02T05:40:00Z,28.1670,-88.4809,41.4,23.2,11111222
W and T,ioos:station:wmo:42901:1,2020-05-02T06:00:00Z,28.1670,-88.4809,41.4,23.2,11111222
W and T,ioos:station:wmo:42901:1,2020-05-02T06:20:00Z,28.1670,-88.4809,41.4,23.3,11111222
W and T,ioos:station:wmo:42901:1,2020-05-02T06:40:00Z,28.1670,-88.4809,41.4,23.2,11111222
W and T,ioos:station:wmo:42901:1,2020-05-02T07:00:00Z,28.1670,-88.4809,41.5,23.2,11111222
W and T,ioos:station:wmo:42901:1,2020-05-02T07:20:00Z,28.1670,-88.4809,41.4,23.1,11111222
W and T,ioos:station:wmo:42901:1,2020-05-02T07:40:00Z,28.1670,-88.4809,41.4,23.0,11111222
W and T,ioos:station:wmo:42901:1,2020-05-02T08:00:00Z,28.1670,-88.4809,41.4,23.0,11111222
W and T,ioos:station:wmo:42901:1,2020-05-02T08:20:00Z,28.1670,-88.4809,41.4,22.9,11111222
W and T,ioos:station:wmo:42901:1,2020-05-02T08:40:00Z,28.1670,-88.4809,41.4,22.9,11111222
W and T,ioos:station:wmo:42901:1,2020-05-02T09:00:00Z,28.1670,-88.4809,41.4,23.0,11111222
W and T,ioos:station:wmo:42901:1,2020-05-02T09:20:00Z,28.1670,-88.4809,41.4,23.1,11111222
W and T,ioos:station:wmo:42901:1,2020-05-02T09:40:00Z,28.1670,-88.4809,41.4,23.2,11111222
W and T,ioos:station:wmo:42901:1,2020-05-02T10:00:00Z,28.1670,-88.4809,41.4,23.3,11111222
W and T,ioos:station:wmo:42901:1,2020-05-02T10:20:00Z,28.1670,-88.4809,41.3,23.3,11111222
W and T,ioos:station:wmo:42901:1,2020-05-02T10:40:00Z,28.1670,-88.4809,41.2,23.2,11111222
W and T,ioos:station:wmo:42901:1,2020-05-02T11:00:00Z,28.1670,-88.4809,41.2,23.1,11111222
W and T,ioos:station:wmo:42901:1,2020-05-02T11:20:00Z,28.1670,-88.4809,41.2,23.1,11111222
W and T,ioos:station:wmo:42901:1,2020-05-02T11:40:00Z,28.1670,-88.4809,41.2,23.1,11111222
W and T,ioos:station:wmo:42901:1,2020-05-02T12:00:00Z,28.1670,-88.4809,41.2,23.1,11111222
W and T,ioos:station:wmo:42901:1,2020-05-02T12:20:00Z,28.1670,-88.4809,41.2,23.1,11111222
W and T,ioos:station:wmo:42901:1,2020-05-02T12:40:00Z,28.1670,-88.4809,41.3,23.0,11111222
W and T,ioos:station:wmo:42901:1,2020-05-02T13:00:00Z,28.1670,-88.4809,41.3,23.0,11111222
W and T,ioos:station:wmo:42901:1,2020-05-02T13:20:00Z,28.1670,-88.4809,41.4,23.0,11111222
W and T,ioos:station:wmo:42901:1,2020-05-02T13:40:00Z,28.1670,-88.4809,41.4,23.0,11111222
W and T,ioos:station:wmo:42901:1,2020-05-02T14:00:00Z,28.1670,-88.4809,41.4,23.1,11111222
W and T,ioos:station:wmo:42901:1,2020-05-02T14:20:00Z,28.1670,-88.4809,41.4,23.3,11111222
W and T,ioos:station:wmo:42901:1,2020-05-02T14:40:00Z,28.1670,-88.4809,41.5,23.5,11111222
W and T,ioos:station:wmo:42901:1,2020-05-02T15:00:00Z,28.1670,-88.4809,41.4,23.5,11111222
W and T,ioos:station:wmo:42901:1,2020-05-02T15:20:00Z,28.1670,-88.4809,41.4,23.4,11111222
W and T,ioos:station:wmo:42901:1,2020-05-02T15:40:00Z,28.1670,-88.4809,41.4,23.5,11111222
W and T,ioos:station:wmo:42901:1,2020-05-02T16:00:00Z,28.1670,-88.4809,41.4,23.4,11111222
W and T,ioos:station:wmo:42901:1,2020-05-02T16:20:00Z,28.1670,-88.4809,41.5,23.3,11111222
W and T,ioos:station:wmo:42901:1,2020-05-02T16:40:00Z,28.1670,-88.4809,41.3,23.4,11111222
W and T,ioos:station:wmo:42901:1,2020-05-02T17:00:00Z,28.1670,-88.4809,41.3,23.6,11111222
W and T,ioos:station:wmo:42901:1,2020-05-02T17:20:00Z,28.1670,-88.4809,41.4,23.7,11111222
W and T,ioos:station:wmo:42901:1,2020-05-02T17:40:00Z,28.1670,-88.4809,41.4,23.8,11111222
W and T,ioos:station:wmo:42901:1,2020-05-02T18:00:00Z,28.1670,-88.4809,41.5,23.7,11111222
W and T,ioos:station:wmo:42901:1,2020-05-02T18:20:00Z,28.1670,-88.4809,41.2,23.6,11111222
W and T,ioos:station:wmo:42901:1,2020-05-02T18:40:00Z,28.1670,-88.4809,41.3,23.8,11111222
W and T,ioos:station:wmo:42901:1,2020-05-02T19:00:00Z,28.1670,-88.4809,41.3,23.9,11111222
W and T,ioos:station:wmo:42901:1,2020-05-02T19:20:00Z,28.1670,-88.4809,41.2,23.9,11111222
W and T,ioos:station:wmo:42901:1,2020-05-02T19:40:00Z,28.1670,-88.4809,41.2,23.9,11111222
W and T,ioos:station:wmo:42901:1,2020-05-02T20:00:00Z,28.1670,-88.4809,41.2,23.9,11111222
W and T,ioos:station:wmo:42901:1,2020-05-02T20:20:00Z,28.1670,-88.4809,41.2,23.9,11111222
W and T,ioos:station:wmo:42901:1,2020-05-02T20:40:00Z,28.1670,-88.4809,41.2,23.9,11111222
W and T,ioos:station:wmo:42901:1,2020-05-02T21:00:00Z,28.1670,-88.4809,41.2,23.9,11111222
W and T,ioos:station:wmo:42901:1,2020-05-02T21:20:00Z,28.1670,-88.4809,41.1,23.9,11111222
W and T,ioos:station:wmo:42901:1,2020-05-02T21:40:00Z,28.1670,-88.4809,41.1,23.9,11111222
W and T,ioos:station:wmo:42901:1,2020-05-02T22:00:00Z,28.1670,-88.4809,41.1,24.1,11111222
W and T,ioos:station:wmo:42901:1,2020-05-02T22:20:00Z,28.1670,-88.4809,41.0,24.1,11111222
W and T,ioos:station:wmo:42901:1,2020-05-02T22:40:00Z,28.1670,-88.4809,41.2,24.1,11111222
W and T,ioos:station:wmo:42901:1,2020-05-02T23:00:00Z,28.1670,-88.4809,41.2,24.1,11111222
W and T,ioos:station:wmo:42901:1,2020-05-02T23:20:00Z,28.1670,-88.4809,41.3,24.1,11111222
W and T,ioos:station:wmo:42901:1,2020-05-02T23:40:00Z,28.1670,-88.4809,41.3,24.1,11111222
W and T,ioos:station:wmo:42901:1,2020-05-03T00:00:00Z,28.1670,-88.4809,41.3,24.1,11111222
W and T,ioos:station:wmo:42901:1,2020-05-03T00:20:00Z,28.1670,-88.4809,41.3,24.1,11111222
W and T,ioos:station:wmo:42901:1,2020-05-03T00:40:00Z,28.1670,-88.4809,41.3,24.1,11111222
W and T,ioos:station:wmo:42901:1,2020-05-03T01:00:00Z,28.1670,-88.4809,41.5,24.1,11111222
W and T,ioos:station:wmo:42901:1,2020-05-03T01:20:00Z,28.1670,-88.4809,41.5,24.2,11111222
W and T,ioos:station:wmo:42901:1,2020-05-03T01:40:00Z,28.1670,-88.4809,41.5,24.2,11111222
W and T,ioos:station:wmo:42901:1,2020-05-03T02:00:00Z,28.1670,-88.4809,41.5,24.2,11111222
W and T,ioos:station:wmo:42901:1,2020-05-03T02:20:00Z,28.1670,-88.4809,41.4,24.2,11111222
W and T,ioos:station:wmo:42901:1,2020-05-03T02:40:00Z,28.1670,-88.4809,41.4,24.2,11111222
W and T,ioos:station:wmo:42901:1,2020-05-03T03:00:00Z,28.1670,-88.4809,41.4,24.2,11111222
W and T,ioos:station:wmo:42901:1,2020-05-03T03:20:00Z,28.1670,-88.4809,41.4,24.2,11111222
W and T,ioos:station:wmo:42901:1,2020-05-03T03:40:00Z,28.1670,-88.4809,41.4,24.2,11111222
W and T,ioos:station:wmo:42901:1,2020-05-03T04:00:00Z,28.1670,-88.4809,41.4,24.2,11111222
W and T,ioos:station:wmo:42901:1,2020-05-03T04:20:00Z,28.1670,-88.4809,41.4,24.1,11111222
W and T,ioos:station:wmo:42901:1,2020-05-03T04:40:00Z,28.1670,-88.4809,41.4,24.1,11111222
W and T,ioos:station:wmo:42901:1,2020-05-03T05:00:00Z,28.1670,-88.4809,41.4,24.1,11111222
W and T,ioos:station:wmo:42901:1,2020-05-03T05:20:00Z,28.1670,-88.4809,41.4,24.1,11111222
W and T,ioos:station:wmo:42901:1,2020-05-03T05:40:00Z,28.1670,-88.4809,41.4,24.1,11111222
W and T,ioos:station:wmo:42901:1,2020-05-03T06:00:00Z,28.1670,-88.4809,41.4,24.1,11111222
W and T,ioos:station:wmo:42901:1,2020-05-03T06:20:00Z,28.1670,-88.4809,41.4,24.1,11111222
W and T,ioos:station:wmo:42901:1,2020-05-03T06:40:00Z,28.1670,-88.4809,41.4,24.1,11111222
W and T,ioos:station:wmo:42901:1,2020-05-03T07:00:00Z,28.1667,-88.4813,41.4,24.1,11111222
W and T,ioos:station:wmo:42901:1,2020-05-03T07:20:00Z,28.1659,-88.4821,41.4,24.1,11111222
W and T,ioos:station:wmo:42901:1,2020-05-03T07:40:00Z,28.1651,-88.4830,41.4,24.1,11111222
W and T,ioos:station:wmo:42901:1,2020-05-03T08:00:00Z,28.1644,-88.4837,41.4,24.1,11111222
W and T,ioos:station:wmo:42901:1,2020-05-03T08:20:00Z,28.1639,-88.4844,41.4,24.1,11111222
W and T,ioos:station:wmo:42901:1,2020-05-03T08:40:00Z,28.1638,-88.4845,41.4,24.1,11111222
W and T,ioos:station:wmo:42901:1,2020-05-03T09:00:00Z,28.1638,-88.4845,41.4,24.1,11111222
W and T,ioos:station:wmo:42901:1,2020-05-03T09:20:00Z,28.1638,-88.4845,41.3,24.1,11111222
W and T,ioos:station:wmo:42901:1,2020-05-03T09:40:00Z,28.1638,-88.4845,41.4,24.1,11111222
W and T,ioos:station:wmo:42901:1,2020-05-03T10:00:00Z,28.1638,-88.4845,41.4,24.1,11111222
W and T,ioos:station:wmo:42901:1,2020-05-03T10:20:00Z,28.1638,-88.4845,41.4,24.1,11111222
W and T,ioos:station:wmo:42901:1,2020-05-03T10:40:00Z,28.1638,-88.4845,41.4,24.1,11111222
W and T,ioos:station:wmo:42901:1,2020-05-03T11:00:00Z,28.1638,-88.4845,41.4,24.1,11111222
W and T,ioos:station:wmo:42901:1,2020-05-03T11:20:00Z,28.1638,-88.4845,41.4,24.1,11111222
W and T,ioos:station:wmo:42901:1,2020-05-03T11:40:00Z,28.1638,-88.4845,41.4,24.1,11111222
W and T,ioos:station:wmo:42901:1,2020-05-03T12:00:00Z,28.1638,-88.4845,41.4,24.1,11111222
W and T,ioos:station:wmo:42901:1,2020-05-03T12:20:00Z,28.1638,-88.4845,41.3,24.1,11111222
W and T,ioos:station:wmo:42901:1,2020-05-03T12:40:00Z,28.1638,-88.4844,41.0,24.1,11111222
W and T,ioos:station:wmo:42901:1,2020-05-03T13:00:00Z,28.1635,-88.4843,41.0,24.1,11111222
W and T,ioos:station:wmo:42901:1,2020-05-03T13:20:00Z,28.1635,-88.4842,41.0,24.1,11111222
W and T,ioos:station:wmo:42901:1,2020-05-03T13:40:00Z,28.1635,-88.4842,41.2,24.1,11111222
W and T,ioos:station:wmo:42901:1,2020-05-03T14:00:00Z,28.1635,-88.4842,41.3,24.1,11111222
W and T,ioos:station:wmo:42901:1,2020-05-03T14:20:00Z,28.1635,-88.4842,41.4,24.1,11111222
W and T,ioos:station:wmo:42901:1,2020-05-03T14:40:00Z,28.1635,-88.4842,41.4,24.1,11111222
W and T,ioos:station:wmo:42901:1,2020-05-03T15:00:00Z,28.1635,-88.4842,41.4,24.1,11111222
W and T,ioos:station:wmo:42901:1,2020-05-03T15:20:00Z,28.1635,-88.4842,41.4,24.1,11111222
W and T,ioos:station:wmo:42901:1,2020-05-03T15:40:00Z,28.1635,-88.4842,41.4,24.1,11111222
W and T,ioos:station:wmo:42901:1,2020-05-03T16:00:00Z,28.1635,-88.4842,41.5,24.1,11111222
W and T,ioos:station:wmo:42901:1,2020-05-03T16:20:00Z,28.1635,-88.4842,41.5,24.1,11111222
W and T,ioos:station:wmo:42901:1,2020-05-03T16:40:00Z,28.1635,-88.4842,41.5,24.1,11111222
W and T,ioos:station:wmo:42901:1,2020-05-03T17:00:00Z,28.1635,-88.4842,41.5,24.1,11111222
W and T,ioos:station:wmo:42901:1,2020-05-03T17:20:00Z,28.1635,-88.4842,41.6,24.1,11111222
W and T,ioos:station:wmo:42901:1,2020-05-03T17:40:00Z,28.1635,-88.4842,41.5,24.1,11111222
W and T,ioos:station:wmo:42901:1,2020-05-03T18:00:00Z,28.1635,-88.4842,41.5,24.1,11111222
W and T,ioos:station:wmo:42901:1,2020-05-03T18:20:00Z,28.1635,-88.4842,41.5,24.1,11111222
W and T,ioos:station:wmo:42901:1,2020-05-03T18:40:00Z,28.1635,-88.4842,41.5,24.1,11111222
W and T,ioos:station:wmo:42901:1,2020-05-03T19:00:00Z,28.1635,-88.4842,41.4,24.1,11111222
W and T,ioos:station:wmo:42901:1,2020-05-03T19:20:00Z,28.1635,-88.4842,41.4,24.1,11111222
W and T,ioos:station:wmo:42901:1,2020-05-03T19:40:00Z,28.1635,-88.4842,41.3,24.1,11111222
W and T,ioos:station:wmo:42901:1,2020-05-03T20:00:00Z,28.1635,-88.4842,41.3,24.1,11111222
W and T,ioos:station:wmo:42901:1,2020-05-03T20:20:00Z,28.1635,-88.4842,41.3,24.1,11111222
W and T,ioos:station:wmo:42901:1,2020-05-03T20:40:00Z,28.1635,-88.4842,41.3,24.1,11111222
W and T,ioos:station:wmo:42901:1,2020-05-03T21:00:00Z,28.1635,-88.4842,41.3,24.1,11111222
W and T,ioos:station:wmo:42901:1,2020-05-03T21:20:00Z,28.1635,-88.4842,41.3,24.1,11111222
W and T,ioos:station:wmo:42901:1,2020-05-03T21:40:00Z,28.1635,-88.4842,41.3,24.1,11111222
W and T,ioos:station:wmo:42901:1,2020-05-03T22:00:00Z,28.1635,-88.4842,41.3,24.1,11111222
W and T,ioos:station:wmo:42901:1,2020-05-03T22:20:00Z,28.1635,-88.4842,41.3,24.2,11111222
W and T,ioos:station:wmo:42901:1,2020-05-03T22:40:00Z,28.1635,-88.4842,41.3,24.1,11111222
W and T,ioos:station:wmo:42901:1,2020-05-03T23:00:00Z,28.1635,-88.4842,41.3,24.1,11111222
W and T,ioos:station:wmo:42901:1,2020-05-03T23:20:00Z,28.1635,-88.4842,41.2,24.1,11111222
W and T,ioos:station:wmo:42901:1,2020-05-03T23:40:00Z,28.1635,-88.4843,41.2,24.1,11111222
W and T,ioos:station:wmo:42901:1,2020-05-04T00:00:00Z,28.1639,-88.4845,41.3,24.1,11111222
W and T,ioos:station:wmo:42901:1,2020-05-04T00:20:00Z,28.1643,-88.4847,41.8,24.1,11111222
W and T,ioos:station:wmo:42901:1,2020-05-04T00:40:00Z,28.1643,-88.4848,41.8,24.1,11111222
W and T,ioos:station:wmo:42901:1,2020-05-04T01:00:00Z,28.1643,-88.4848,41.8,24.1,11111222
W and T,ioos:station:wmo:42901:1,2020-05-04T01:20:00Z,28.1643,-88.4848,41.8,24.1,11111222
W and T,ioos:station:wmo:42901:1,2020-05-04T01:40:00Z,28.1643,-88.4848,41.9,24.1,11111222
W and T,ioos:station:wmo:42901:1,2020-05-04T02:00:00Z,28.1643,-88.4848,41.8,24.1,11111222
W and T,ioos:station:wmo:42901:1,2020-05-04T02:20:00Z,28.1643,-88.4848,41.8,24.1,11111222
W and T,ioos:station:wmo:42901:1,2020-05-04T02:40:00Z,28.1643,-88.4848,41.7,24.1,11111222
W and T,ioos:station:wmo:42901:1,2020-05-04T03:00:00Z,28.1643,-88.4848,41.8,24.1,11111222
W and T,ioos:station:wmo:42901:1,2020-05-04T03:20:00Z,28.1643,-88.4848,41.7,24.2,11111222
W and T,ioos:station:wmo:42901:1,2020-05-04T03:40:00Z,28.1643,-88.4848,41.6,24.2,11111222
W and T,ioos:station:wmo:42901:1,2020-05-04T04:00:00Z,28.1643,-88.4848,41.6,24.2,11111222
W and T,ioos:station:wmo:42901:1,2020-05-04T04:20:00Z,28.1642,-88.4847,41.6,24.2,11111222
W and T,ioos:station:wmo:42901:1,2020-05-04T04:40:00Z,28.1640,-88.4845,41.6,24.2,11111222
W and T,ioos:station:wmo:42901:1,2020-05-04T05:00:00Z,28.1639,-88.4845,41.6,24.2,11111222
W and T,ioos:station:wmo:42901:1,2020-05-04T05:20:00Z,28.1639,-88.4845,41.6,24.1,11111222
W and T,ioos:station:wmo:42901:1,2020-05-04T05:40:00Z,28.1639,-88.4845,41.7,24.1,11111222
W and T,ioos:station:wmo:42901:1,2020-05-04T06:00:00Z,28.1639,-88.4845,41.6,24.1,11111222
W and T,ioos:station:wmo:42901:1,2020-05-04T06:20:00Z,28.1639,-88.4845,41.7,24.1,11111222
W and T,ioos:station:wmo:42901:1,2020-05-04T06:40:00Z,28.1639,-88.4845,41.5,24.1,11111222
W and T,ioos:station:wmo:42901:1,2020-05-04T07:00:00Z,28.1642,-88.4847,41.5,24.1,11111222
W and T,ioos:station:wmo:42901:1,2020-05-04T07:20:00Z,28.1643,-88.4847,41.4,24.1,11111222
W and T,ioos:station:wmo:42901:1,2020-05-04T07:40:00Z,28.1641,-88.4846,41.5,24.1,11111222
W and T,ioos:station:wmo:42901:1,2020-05-04T08:00:00Z,28.1639,-88.4843,41.5,24.1,11111222
W and T,ioos:station:wmo:42901:1,2020-05-04T08:20:00Z,28.1643,-88.4838,41.5,24.1,11111222
W and T,ioos:station:wmo:42901:1,2020-05-04T08:40:00Z,28.1649,-88.4832,41.5,24.1,11111222
W and T,ioos:station:wmo:42901:1,2020-05-04T09:00:00Z,28.1657,-88.4823,41.4,24.1,11111222
W and T,ioos:station:wmo:42901:1,2020-05-04T09:20:00Z,28.1665,-88.4815,41.3,24.1,11111222
W and T,ioos:station:wmo:42901:1,2020-05-04T09:40:00Z,28.1670,-88.4809,41.4,24.1,11111222
W and T,ioos:station:wmo:42901:1,2020-05-04T10:00:00Z,28.1670,-88.4809,41.6,24.1,11111222
W and T,ioos:station:wmo:42901:1,2020-05-04T10:20:00Z,28.1670,-88.4809,41.0,24.1,11111222
W and T,ioos:station:wmo:42901:1,2020-05-04T10:40:00Z,28.1670,-88.4809,41.4,24.1,11111222
W and T,ioos:station:wmo:42901:1,2020-05-04T11:00:00Z,28.1670,-88.4809,41.5,24.1,11111222
W and T,ioos:station:wmo:42901:1,2020-05-04T11:20:00Z,28.1670,-88.4809,41.5,24.1,11111222
W and T,ioos:station:wmo:42901:1,2020-05-04T11:40:00Z,28.1670,-88.4809,41.6,24.1,11111222
W and T,ioos:station:wmo:42901:1,2020-05-04T12:00:00Z,28.1670,-88.4809,41.6,24.1,11111222
W and T,ioos:station:wmo:42901:1,2020-05-04T12:20:00Z,28.1670,-88.4809,41.6,24.1,11111222
W and T,ioos:station:wmo:42901:1,2020-05-04T12:40:00Z,28.1670,-88.4809,41.6,24.1,11111222
W and T,ioos:station:wmo:42901:1,2020-05-04T13:00:00Z,28.1670,-88.4809,41.5,24.1,11111222
W and T,ioos:station:wmo:42901:1,2020-05-04T13:20:00Z,28.1670,-88.4809,41.5,24.1,11111222
W and T,ioos:station:wmo:42901:1,2020-05-04T13:40:00Z,28.1670,-88.4809,41.5,24.1,11111222
W and T,ioos:station:wmo:42901:1,2020-05-04T14:00:00Z,28.1670,-88.4809,41.3,24.1,11111222
W and T,ioos:station:wmo:42901:1,2020-05-04T14:20:00Z,28.1670,-88.4809,41.3,24.1,11111222
W and T,ioos:station:wmo:42901:1,2020-05-04T14:40:00Z,28.1670,-88.4809,41.3,24.1,11111222
W and T,ioos:station:wmo:42901:1,2020-05-04T15:00:00Z,28.1670,-88.4809,41.3,24.1,11111222
W and T,ioos:station:wmo:42901:1,2020-05-04T15:20:00Z,28.1670,-88.4809,41.2,24.1,11111222
W and T,ioos:station:wmo:42901:1,2020-05-04T15:40:00Z,28.1670,-88.4809,41.2,24.1,11111222
W and T,ioos:station:wmo:42901:1,2020-05-04T16:00:00Z,28.1670,-88.4809,41.3,24.1,11111222
W and T,ioos:station:wmo:42901:1,2020-05-04T16:20:00Z,28.1670,-88.4809,41.4,24.1,11111222
W and T,ioos:station:wmo:42901:1,2020-05-04T16:40:00Z,28.1670,-88.4809,41.4,24.1,11111222
W and T,ioos:station:wmo:42901:1,2020-05-04T17:00:00Z,28.1670,-88.4809,41.4,24.1,11111222
W and T,ioos:station:wmo:42901:1,2020-05-04T17:20:00Z,28.1670,-88.4809,41.3,24.1,11111222
W and T,ioos:station:wmo:42901:1,2020-05-04T17:40:00Z,28.1670,-88.4809,41.3,24.1,11111222
W and T,ioos:station:wmo:42901:1,2020-05-04T18:00:00Z,28.1670,-88.4809,41.3,24.1,11111222
W and T,ioos:station:wmo:42901:1,2020-05-04T18:20:00Z,28.1670,-88.4809,41.3,24.1,11111222
W and T,ioos:station:wmo:42901:1,2020-05-04T18:40:00Z,28.1670,-88.4809,41.3,24.1,11111222
W and T,ioos:station:wmo:42901:1,2020-05-04T19:00:00Z,28.1670,-88.4809,41.3,24.1,11111222
W and T,ioos:station:wmo:42901:1,2020-05-04T19:20:00Z,28.1670,-88.4809,41.3,24.1,11111222
W and T,ioos:station:wmo:42901:1,2020-05-04T19:40:00Z,28.1670,-88.4809,41.3,24.1,11111222
W and T,ioos:station:wmo:42901:1,2020-05-04T20:00:00Z,28.1670,-88.4809,41.3,24.0,11111222
W and T,ioos:station:wmo:42901:1,2020-05-04T20:20:00Z,28.1670,-88.4809,41.3,24.0,11111222
W and T,ioos:station:wmo:42901:1,2020-05-04T20:40:00Z,28.1670,-88.4809,41.3,24.0,11111222
W and T,ioos:station:wmo:42901:1,2020-05-04T21:00:00Z,28.1670,-88.4809,41.5,24.0,11111222
W and T,ioos:station:wmo:42901:1,2020-05-04T21:20:00Z,28.1670,-88.4809,41.4,24.0,11111222
W and T,ioos:station:wmo:42901:1,2020-05-04T21:40:00Z,28.1670,-88.4809,41.3,24.1,11111222
W and T,ioos:station:wmo:42901:1,2020-05-04T22:00:00Z,28.1670,-88.4809,41.3,24.0,11111222
W and T,ioos:station:wmo:42901:1,2020-05-04T22:20:00Z,28.1670,-88.4809,41.3,24.0,11111222
W and T,ioos:station:wmo:42901:1,2020-05-04T22:40:00Z,28.1670,-88.4809,41.2,24.1,11111222
W and T,ioos:station:wmo:42901:1,2020-05-04T23:00:00Z,28.1670,-88.4809,41.2,24.1,11111222
W and T,ioos:station:wmo:42901:1,2020-05-04T23:20:00Z,28.1670,-88.4809,41.2,24.2,11111222
W and T,ioos:station:wmo:42901:1,2020-05-04T23:40:00Z,28.1670,-88.4809,41.2,24.2,11111222
W and T,ioos:station:wmo:42901:1,2020-05-05T00:00:00Z,28.1670,-88.4809,41.1,24.2,11111222
W and T,ioos:station:wmo:42901:1,2020-05-05T00:20:00Z,28.1670,-88.4809,41.0,24.2,11111222
W and T,ioos:station:wmo:42901:1,2020-05-05T00:40:00Z,28.1670,-88.4809,41.0,24.2,11111222
W and T,ioos:station:wmo:42901:1,2020-05-05T01:00:00Z,28.1670,-88.4809,41.1,24.2,11111222
W and T,ioos:station:wmo:42901:1,2020-05-05T01:20:00Z,28.1670,-88.4809,41.1,24.2,11111222
W and T,ioos:station:wmo:42901:1,2020-05-05T01:40:00Z,28.1670,-88.4809,41.0,24.2,11111222
W and T,ioos:station:wmo:42901:1,2020-05-05T02:00:00Z,28.1670,-88.4809,41.0,24.2,11111222
W and T,ioos:station:wmo:42901:1,2020-05-05T02:20:00Z,28.1670,-88.4809,41.1,24.2,11111222
W and T,ioos:station:wmo:42901:1,2020-05-05T02:40:00Z,28.1670,-88.4809,41.1,24.2,11111222
W and T,ioos:station:wmo:42901:1,2020-05-05T03:00:00Z,28.1670,-88.4809,41.1,24.2,11111222
W and T,ioos:station:wmo:42901:1,2020-05-05T03:20:00Z,28.1670,-88.4809,41.0,24.2,11111222
W and T,ioos:station:wmo:42901:1,2020-05-05T03:40:00Z,28.1670,-88.4809,41.0,24.2,11111222
W and T,ioos:station:wmo:42901:1,2020-05-05T04:00:00Z,28.1670,-88.4809,41.0,24.2,11111222
W and T,ioos:station:wmo:42901:1,2020-05-05T04:20:00Z,28.1670,-88.4809,41.1,24.2,11111222
W and T,ioos:station:wmo:42901:1,2020-05-05T04:40:00Z,28.1670,-88.4809,41.1,24.2,11111222
W and T,ioos:station:wmo:42901:1,2020-05-05T05:00:00Z,28.1670,-88.4809,41.1,24.2,11111222
W and T,ioos:station:wmo:42901:1,2020-05-05T05:20:00Z,28.1670,-88.4809,41.1,24.2,11111222
W and T,ioos:station:wmo:42901:1,2020-05-05T05:40:00Z,28.1670,-88.4809,41.1,24.2,11111222
W and T,ioos:station:wmo:42901:1,2020-05-05T06:00:00Z,28.1670,-88.4809,41.1,24.2,11111222
W and T,ioos:station:wmo:42901:1,2020-05-05T06:20:00Z,28.1670,-88.4809,41.0,24.2,11111222
W and T,ioos:station:wmo:42901:1,2020-05-05T06:40:00Z,28.1670,-88.4809,40.9,24.2,11111222
W and T,ioos:station:wmo:42901:1,2020-05-05T07:00:00Z,28.1670,-88.4809,41.0,24.2,11111222
W and T,ioos:station:wmo:42901:1,2020-05-05T07:20:00Z,28.1670,-88.4809,41.0,24.2,11111222
W and T,ioos:station:wmo:42901:1,2020-05-05T07:40:00Z,28.1670,-88.4809,41.0,24.2,11111222
W and T,ioos:station:wmo:42901:1,2020-05-05T08:00:00Z,28.1670,-88.4809,41.1,24.2,11111222